Probability
0 0 1 2 1 0 0 0 0 0 0 0 0 2 4 4 2 3 7 12 16 20 23 24 25 23 20 18 15 12 8 7 5 2 1 2 2 2 3 4 5 3 1 2 2 1 2 3 2
0 1 2 2 1 0 0 0 0 0 0 0 1 4 7 8 7 8 12 16 20 23 24 24 25 24 21 20 17 13 9 7 6 3 1 1 2 2 2 3 4 3 3 4 3 2 3 4 4
0 1 2 2 1 0 0 0 0 0 0 0 2 5 10 14 15 15 19 24 26 26 25 24 25 24 23 21 19 15 10 7 6 5 3 1 1 2 2 2 3 4 5 5 4 3 5 5 4
0 0 1 1 0 0 0 0 0 0 0 1 3 7 13 19 21 23 27 31 31 29 25 25 25 24 23 22 19 15 11 8 6 6 4 2 1 1 2 2 4 6 6 4 2 3 4 5 4
0 0 0 0 0 0 0 0 0 0 0 2 5 10 18 24 27 29 32 35 36 34 29 27 26 24 23 21 18 15 13 9 7 6 5 4 3 2 1 3 5 7 5 3 3 3 5 5 4
1 1 0 0 0 0 0 0 0 0 0 2 6 11 19 26 31 33 34 36 38 36 32 28 26 24 21 19 17 15 14 12 9 7 7 6 5 4 3 3 5 6 5 4 5 5 6 5 4
0 0 0 0 0 0 0 0 0 0 0 2 5 11 18 25 30 32 33 34 34 32 29 25 23 21 20 17 15 13 12 12 11 9 7 7 7 6 5 4 4 5 4 4 5 6 6 6 5
0 0 0 0 0 0 0 0 0 0 0 1 4 9 15 21 25 28 30 30 29 27 24 22 20 19 19 17 13 9 8 9 11 10 8 7 7 6 5 5 5 5 4 4 4 5 6 6 5
0 0 0 0 0 0 0 0 0 0 0 1 4 8 11 15 20 25 27 26 26 24 20 19 19 19 17 15 11 7 5 6 9 9 8 6 5 4 3 3 4 5 5 5 4 4 4 5 5
0 0 0 0 0 0 0 0 0 0 0 2 5 8 10 12 17 23 26 25 23 20 18 17 18 16 13 10 9 6 4 4 5 7 6 5 3 3 3 3 5 5 5 4 3 2 2 3 4
0 0 0 0 0 0 0 0 0 0 0 2 4 7 10 11 14 19 22 22 20 18 16 16 15 11 7 6 5 5 4 2 2 5 5 4 3 4 4 5 6 6 4 2 1 1 1 2 3
0 0 0 0 0 0 0 0 0 0 1 2 4 6 8 9 10 13 16 17 16 15 14 13 10 6 3 3 4 3 2 1 1 3 4 4 4 4 4 5 6 5 3 1 0 0 1 2 2
0 0 0 0 0 0 0 0 0 0 1 2 3 5 6 8 8 8 9 10 10 11 11 10 7 4 3 3 3 3 1 0 0 1 2 3 3 3 3 4 4 3 1 0 0 0 0 1 1
0 0 0 0 0 0 0 0 0 0 0 1 3 4 6 7 6 6 6 6 6 7 8 9 6 3 2 3 3 2 1 0 0 0 1 1 1 1 3 3 3 2 1 0 0 0 0 0 0
0 0 0 0 0 0 0 0 0 0 0 1 3 5 6 6 4 4 5 6 5 5 7 7 5 2 1 2 1 1 0 0 0 0 0 0 0 1 2 3 3 2 1 0 0 0 0 0 0
0 0 0 0 0 0 0 0 0 0 1 2 4 6 5 4 3 4 5 6 5 4 5 5 3 1 0 0 0 0 0 0 0 0 0 0 0 0 1 2 2 1 1 0 0 0 0 0 0
0 0 0 0 0 0 0 0 0 0 0 1 4 4 2 1 1 3 4 4 4 4 3 2 1 0 0 0 0 0 0 0 0 0 0 0 0 0 0 0 0 0 0 0 0 0 0 0 0
0 0 0 0 0 0 0 0 0 0 0 0 1 1 0 0 0 1 3 3 3 3 3 1 0 0 0 0 0 0 0 0 0 0 0 0 0 0 0 0 0 0 0 0 0 0 0 0 0
0 0 0 0 0 0 0 0 0 0 0 0 0 0 0 0 0 1 2 3 3 3 2 1 0 0 0 0 0 0 0 0 0 0 0 0 0 0 0 0 0 0 0 0 0 0 1 1 0
0 0 0 0 0 0 0 0 0 0 0 0 0 0 0 0 0 1 2 3 3 3 1 0 0 0 0 0 0 0 0 0 0 0 0 0 0 0 0 0 0 0 0 0 0 0 1 1 1
0 0 0 0 0 0 0 0 0 0 0 0 0 0 0 0 0 1 2 3 3 2 1 0 0 0 0 0 0 0 0 0 0 0 0 0 0 0 0 0 0 0 0 0 0 0 0 0 0
0 0 0 0 0 0 0 0 0 0 0 0 0 0 0 0 0 0 1 1 2 2 1 0 0 0 0 0 0 0 0 0 0 0 0 0 0 0 0 0 0 0 0 0 0 0 0 0 0
0 0 0 0 0 0 0 0 0 0 0 0 0 0 0 0 0 0 0 0 1 1 1 0 0 0 0 0 0 0 0 0 0 0 0 0 0 0 0 0 0 0 0 0 0 0 0 0 0
0 0 0 0 0 0 0 0 0 0 0 0 0 0 0 0 0 0 0 0 0 0 0 0 0 0 0 0 0 0 0 0 0 0 0 0 0 0 0 0 0 0 0 0 0 0 0 0 0
0 0 0 0 0 0 0 0 0 0 0 0 0 0 0 0 0 0 0 0 0 0 0 0 0 0 0 0 0 0 0 0 0 0 0 0 0 0 1 1 0 0 0 0 0 0 0 0 0
0 0 0 0 0 0 0 0 0 0 0 0 0 0 0 0 0 0 0 0 0 0 0 0 0 0 0 0 0 0 0 0 0 0 0 0 0 0 1 2 1 0 0 0 0 0 0 0 0
0 0 0 0 0 0 0 0 0 0 0 0 0 0 0 0 0 0 0 0 0 0 0 0 0 0 0 0 0 0 0 0 0 0 0 0 0 0 1 2 2 1 0 0 0 0 0 0 0
0 0 0 0 0 0 0 0 0 0 0 0 0 0 0 0 0 0 0 0 0 0 0 0 0 0 0 0 0 0 0 0 0 0 0 0 0 0 0 1 1 1 0 0 0 0 0 0 0
0 0 0 0 0 0 0 0 0 0 0 0 0 0 0 0 0 0 0 0 0 0 0 0 0 0 0 0 0 0 0 0 0 0 0 0 0 0 0 0 0 1 1 0 0 0 0 0 0
0 0 0 0 0 0 0 0 0 0 0 0 0 0 0 0 0 0 0 0 0 0 0 0 0 0 0 0 0 0 0 0 0 0 0 0 0 0 0 0 0 0 1 0 0 0 0 0 0
Wind_Speed
8 5 2 4 5 2 4 4 2 1 1 2 1 1 3 3 3 3 2 6 9 9 8 9 10 10 11 11 10 10 9 9 9 8 8 8 8 8 8 7 7 7 6 6 6 6 6 6 6
3 3 4 4 4 3 4 4 4 4 3 1 2 1 2 1 1 4 3 6 9 9 8 8 9 10 11 11 11 10 9 8 8 8 8 7 7 7 7 7 7 6 6 6 6 5 5 5 4
4 2 4 3 3 6 5 3 6 5 3 2 2 2 1 2 2 2 3 8 8 7 5 7 9 10 10 11 11 10 9 8 7 7 7 7 7 7 7 6 6 6 6 5 5 5 5 4 3
3 4 4 2 5 5 4 3 2 2 3 2 2 2 1 0 1 3 7 9 9 6 5 6 9 9 9 9 10 10 9 8 8 7 7 7 7 7 6 6 5 5 5 5 4 4 4 4 3
3 3 3 2 5 3 3 3 1 1 1 1 2 0 1 2 2 7 8 9 9 6 4 5 8 8 8 8 9 10 9 9 8 7 7 6 7 7 6 5 5 5 4 4 4 3 3 3 2
3 3 3 4 5 3 3 3 1 2 2 1 1 0 2 0 4 6 8 7 8 7 6 5 8 8 7 7 7 9 9 8 8 7 6 6 6 6 6 5 5 4 4 4 3 2 2 2 2
3 3 3 3 3 3 4 3 2 3 3 2 2 1 1 1 2 5 7 7 7 7 6 4 4 5 6 6 5 7 8 8 7 7 6 6 5 5 5 4 4 4 3 3 3 2 2 1 2
3 2 1 2 3 4 2 2 2 3 4 1 2 3 3 3 2 5 7 6 6 6 5 4 4 3 3 4 5 5 7 7 7 6 6 5 4 4 4 3 3 3 3 2 2 2 2 2 2
3 2 3 3 3 3 2 1 3 2 1 1 1 2 3 2 3 6 6 5 5 5 4 4 4 3 2 3 4 4 5 5 5 5 5 4 2 2 2 2 3 2 2 2 2 2 2 3 3
3 3 6 3 2 3 2 2 3 2 1 1 1 1 1 3 5 7 8 7 6 5 4 3 4 3 2 2 3 2 2 2 2 2 3 2 1 1 2 2 2 2 3 2 2 2 3 2 1
2 4 4 4 3 2 3 3 2 1 3 4 3 3 3 3 4 7 7 7 6 6 5 4 3 3 2 1 2 1 1 1 2 2 2 2 2 1 1 1 1 1 2 1 2 2 2 1 1
2 4 4 4 3 3 3 3 2 3 6 4 5 5 5 4 4 5 6 5 5 5 4 4 3 3 2 2 2 2 2 1 1 2 2 2 2 1 1 1 1 1 1 1 1 1 2 2 2
3 4 4 4 4 3 2 4 3 5 5 1 4 4 5 4 3 3 4 5 5 4 4 4 4 3 3 2 2 2 2 2 2 2 2 3 2 2 1 1 1 1 1 1 1 1 2 2 2
2 3 4 4 4 2 2 4 3 6 3 3 4 4 5 4 4 4 5 5 5 5 4 4 4 3 3 2 2 2 2 2 2 2 2 3 2 2 2 1 1 1 1 1 1 1 1 1 1
1 2 4 4 3 2 1 4 5 6 2 4 4 4 5 4 3 4 5 5 5 5 4 4 4 4 4 3 2 2 2 2 2 2 2 3 2 2 2 2 1 1 1 1 1 2 2 2 2
1 1 2 4 2 2 3 6 6 3 4 4 4 4 4 4 3 3 3 3 4 4 4 3 4 4 4 3 3 2 2 3 2 2 2 3 3 3 2 2 1 1 1 1 1 1 1 2 2
2 1 3 4 2 1 3 6 5 2 4 4 4 5 4 3 2 3 4 3 4 4 5 4 4 4 3 3 3 3 3 2 2 2 2 2 3 3 3 2 1 1 2 2 1 2 1 1 1
2 2 3 4 3 1 3 6 5 2 3 4 4 4 4 4 4 4 4 4 4 4 4 4 4 4 3 3 3 2 3 2 2 2 2 2 2 3 3 2 2 2 2 2 1 2 1 1 0
3 3 5 5 3 1 4 6 6 2 2 3 3 4 4 5 4 3 4 4 4 4 4 3 3 4 4 3 2 2 1 1 1 1 2 2 2 3 3 2 2 2 2 1 1 1 2 1 1
2 3 5 4 2 2 3 5 5 3 4 4 5 5 5 4 3 3 3 4 4 4 3 3 3 3 3 2 1 1 1 0 0 1 1 2 2 2 2 2 1 1 2 2 2 2 1 1 1
3 4 4 4 2 1 1 5 4 3 3 3 3 5 5 6 6 5 5 4 4 4 4 3 3 3 3 3 2 2 2 2 1 1 0 0 1 2 2 2 2 1 2 1 1 1 2 1 1
4 4 4 3 0 2 1 3 5 3 2 3 4 4 5 5 5 5 5 5 5 5 4 3 4 4 3 3 3 3 2 1 1 1 1 0 1 1 1 2 2 1 1 1 1 1 1 2 1
5 3 3 3 2 1 1 1 7 1 3 6 6 5 5 5 6 6 6 6 5 4 4 3 3 3 3 3 3 3 2 1 0 1 1 1 1 1 1 1 2 1 1 1 1 1 1 1 2
3 2 2 2 3 1 3 3 6 4 7 6 6 6 6 6 5 5 4 4 3 3 4 4 4 3 3 3 3 3 3 2 2 1 1 1 1 1 1 1 2 2 1 2 2 2 2 1 1
3 4 4 5 3 5 2 3 9 6 6 7 8 8 7 5 5 5 5 5 4 5 5 4 4 3 3 3 3 3 3 3 3 2 2 1 1 1 2 1 2 2 2 2 2 2 2 2 2
0 3 4 3 4 5 3 5 8 4 2 3 5 5 5 5 5 6 6 6 5 5 5 5 5 4 4 4 3 3 2 2 2 2 2 2 2 2 2 2 2 2 2 2 2 2 2 2 2
1 2 3 4 1 3 5 6 7 1 1 1 2 4 5 5 5 5 5 5 5 5 5 6 5 4 4 4 3 2 2 2 2 2 2 2 2 2 2 2 2 2 2 3 3 2 2 2 2
3 3 3 3 1 4 6 5 5 4 4 3 4 5 5 4 4 4 4 5 5 5 5 4 5 5 4 4 3 2 3 2 2 2 2 2 2 2 2 2 3 2 2 2 2 2 2 2 3
2 2 2 2 3 3 4 8 6 5 5 5 6 6 6 5 5 4 4 4 3 3 4 4 4 3 3 4 3 2 2 2 2 2 3 3 2 2 2 2 2 3 3 2 2 3 3 3 3
4 5 5 3 4 4 3 10 5 3 4 4 5 4 4 4 4 3 3 3 2 3 3 3 4 4 4 4 3 3 2 2 2 2 3 3 3 2 2 2 2 2 2 2 3 3 3 3 4
Wind_Direction
331 334 37 56 67 77 226 235 239 217 238 250 252 119 137 159 164 179 144 131 129 145 149 150 146 144 141 136 133 129 125 122 120 116 114 112 111 110 108 105 107 106 103 102 99 94 89 85 81
332 354 52 66 120 198 241 224 224 237 228 266 5 54 79 67 70 106 111 138 134 140 143 146 148 145 143 140 137 132 128 125 124 122 118 117 115 110 107 103 105 106 103 101 97 92 87 83 78
336 48 87 94 168 201 212 220 218 241 280 328 9 22 87 145 109 131 152 143 131 129 136 145 142 144 143 143 140 136 133 130 126 124 120 117 112 108 106 103 102 105 101 96 91 87 83 78 73
46 46 62 110 218 224 204 231 217 239 322 349 58 6 355 352 156 151 142 136 127 123 123 141 138 138 138 142 142 140 137 134 127 123 121 118 114 109 107 105 102 102 102 99 94 92 88 79 69
59 84 94 220 234 239 239 259 281 264 269 335 43 305 290 328 97 123 130 130 128 122 119 135 131 134 135 138 145 144 141 135 131 127 124 123 118 113 107 109 106 104 104 103 100 96 92 81 65
59 81 134 221 237 247 260 264 264 277 269 300 51 278 234 311 109 121 125 127 127 126 120 124 124 120 125 134 144 147 141 136 133 130 124 122 123 119 113 113 112 112 110 109 106 102 96 82 51
108 121 189 213 237 251 251 254 219 247 268 247 153 146 249 269 133 128 124 122 120 120 116 108 111 122 122 119 126 144 141 136 130 124 118 112 117 118 113 110 115 118 115 106 101 94 81 50 24
128 117 206 215 217 242 253 279 250 228 248 241 136 164 211 231 156 126 118 114 115 115 116 114 106 100 107 118 118 119 132 131 127 122 114 109 109 117 112 106 109 108 104 95 86 75 48 18 8
95 101 221 217 211 240 265 293 291 281 207 287 221 195 220 195 141 124 119 115 116 118 120 119 108 97 92 114 120 112 122 126 122 119 114 108 109 118 117 106 98 91 79 70 64 44 35 21 7
112 191 228 232 227 242 280 279 278 324 298 278 331 342 91 129 152 147 146 146 141 135 138 133 123 120 111 125 117 112 109 119 117 116 117 111 115 128 120 99 77 65 51 34 37 29 23 27 8
172 215 240 267 266 266 288 289 287 201 249 220 214 204 152 149 159 159 158 156 154 149 144 139 139 137 122 114 129 111 94 99 99 100 110 106 99 86 81 78 44 37 42 23 10 21 15 25 32
215 249 247 266 274 278 268 275 288 241 238 222 197 184 169 162 167 168 157 152 144 142 144 144 142 134 121 112 121 122 118 110 106 113 114 109 101 90 96 97 83 63 46 29 24 20 15 26 29
233 260 268 260 263 257 277 272 259 267 260 202 158 165 172 169 169 176 152 141 141 144 145 146 139 135 126 112 123 121 125 120 119 116 112 113 115 111 105 108 94 66 55 56 36 30 32 32 26
240 269 291 288 267 263 244 276 257 259 237 163 162 176 189 183 178 164 152 150 155 155 153 145 141 139 127 116 121 129 124 115 103 106 112 114 117 112 108 106 87 60 47 59 58 37 52 48 44
263 298 306 281 260 244 187 292 247 250 202 173 187 186 188 188 189 177 174 164 163 160 151 143 145 134 125 121 120 111 116 111 97 95 96 103 107 109 108 110 88 45 32 58 59 41 40 50 45
347 1 298 282 251 226 154 265 267 237 178 192 199 188 184 193 195 189 177 162 159 149 137 143 143 125 119 122 118 110 104 105 101 92 88 93 98 97 91 91 87 54 61 59 69 56 48 40 32
8 315 277 292 256 192 179 253 273 210 173 194 197 188 186 194 203 191 167 165 158 149 142 141 128 120 114 106 98 97 91 92 100 88 85 96 93 95 95 82 63 76 74 54 51 58 72 50 14
254 270 276 265 264 185 220 253 276 231 179 192 191 187 189 196 216 192 162 168 153 142 135 129 128 120 110 96 82 74 78 80 89 96 87 92 99 99 96 88 58 75 80 56 50 64 56 68 351
231 254 276 264 252 212 239 259 272 254 211 189 182 192 201 210 207 175 161 159 140 130 130 129 134 131 123 115 107 97 89 82 89 107 100 85 96 102 101 90 66 68 88 83 74 86 73 36 15
251 271 282 288 265 218 247 270 267 228 218 203 196 204 210 206 197 178 168 155 146 147 155 148 149 137 134 131 128 129 131 142 150 108 89 98 94 101 111 109 100 84 87 74 69 82 93 44 37
268 237 256 265 305 305 312 307 281 248 219 206 199 199 204 201 198 181 169 160 158 163 174 174 164 152 144 130 106 85 64 49 50 74 61 53 92 92 107 114 112 105 105 120 116 122 122 123 355
268 243 240 254 299 282 191 282 282 246 230 221 226 204 202 204 195 177 174 174 179 187 176 165 165 161 158 146 139 138 139 158 214 185 173 172 123 122 130 126 122 115 115 132 146 119 135 144 167
246 273 257 243 197 312 313 211 284 279 235 229 220 205 202 198 195 189 189 188 185 177 169 164 155 161 163 154 151 152 148 160 137 107 136 178 212 182 178 159 148 157 168 177 149 112 133 156 173
259 347 16 40 70 293 238 188 271 232 221 222 211 203 203 198 198 196 195 176 176 167 165 161 155 166 169 163 161 170 171 162 139 146 173 205 229 220 202 189 178 192 192 197 188 171 179 183 179
49 63 23 2 1 265 270 205 250 246 226 207 201 201 203 198 192 190 187 183 182 178 178 173 168 177 177 172 178 184 185 177 183 188 199 206 214 225 230 206 201 210 211 207 188 171 192 191 188
141 131 150 206 248 286 308 244 258 267 252 198 191 188 189 192 194 193 195 192 190 185 181 179 182 185 181 183 193 188 180 180 195 195 198 209 219 225 226 212 206 213 216 209 192 180 204 199 197
144 187 176 147 251 281 280 286 301 266 308 120 160 169 188 195 197 195 191 190 190 188 190 189 190 192 190 191 189 193 192 192 203 200 198 212 224 229 219 215 216 218 218 211 194 194 212 206 209
166 158 105 126 181 279 291 276 256 255 230 210 199 199 202 195 194 193 192 196 199 197 194 187 189 196 194 189 194 200 206 206 212 202 210 226 233 227 218 229 227 229 228 225 203 204 212 209 221
167 169 152 153 173 182 273 273 231 223 218 208 213 211 203 201 199 197 198 197 193 183 179 181 185 186 189 194 197 198 209 212 208 216 223 224 228 227 227 234 234 230 231 229 217 217 217 218 231
190 192 163 170 236 196 217 269 269 235 230 202 209 216 205 200 196 192 187 175 171 178 182 185 189 191 197 194 193 202 204 205 211 229 238 227 229 234 234 234 235 240 238 230 222 224 222 220 229